Location: Eboldshausen
(51.7766°N, 10.0050°E)
Time: 01:31:57
(UTC+00:00)

NOAA 6 - Pass Details

Date: 15 November 2025
Orbit: 766 x 782 km, 98.6° (Epoch: 13 December)

Event Time Altitude Azimuth Distance (km) Brightness Sun altitude
Rises 17:22:27 0° 149° (SSE) 3,256 7.0 -17.3°
Reaches altitude 10° 17:24:47 10° 145° (SE) 2,330 6.2 -17.6°
Maximum altitude 17:29:48 56° 68° (ENE) 928 4.0 -18.4°
Drops below altitude 10° 17:34:50 10° 352° (N) 2,337 6.5 -19.2°
Sets 17:37:11 0° 348° (NNW) 3,267 7.3 -19.5°
